Wind_Speed
43 44 44 43 43 43 43 44 44 44 43 43 43 43 42 42 42 42 42 43 42 42 42 41 41 41 41 41 40 40 39 38 38 37 36 35 35 34 33 32 32 32 31
44 44 44 44 43 43 43 44 44 45 45 44 44 44 44 44 43 43 43 44 43 42 41 42 42 42 42 42 42 42 42 40 39 38 37 37 36 36 35 34 33 33 32
44 44 44 44 43 43 43 44 46 45 45 45 44 44 44 44 44 45 44 44 44 44 43 43 42 42 42 43 43 42 42 42 41 39 39 39 37 36 36 35 35 34 34
43 44 44 43 43 44 43 45 46 45 45 45 44 44 43 44 45 45 45 45 45 45 45 45 43 43 43 44 43 43 42 42 42 41 41 40 38 37 37 37 36 36 35
41 42 43 43 43 44 44 44 45 45 46 46 45 45 44 44 44 45 45 46 46 45 45 45 45 45 45 45 45 45 44 43 43 43 43 42 40 39 39 39 38 38 37
41 42 42 42 43 44 44 44 45 45 45 45 45 45 44 44 44 44 44 45 46 46 46 45 45 46 47 47 46 45 45 44 44 44 44 44 43 41 41 41 40 39 39
40 40 41 42 42 43 43 44 44 44 44 45 45 45 45 44 44 44 44 45 46 46 47 47 47 46 47 48 47 46 45 45 45 45 45 45 45 43 43 43 42 41 40
39 39 40 41 41 42 42 43 42 43 43 45 45 45 46 46 44 44 45 46 46 46 48 48 48 47 48 49 49 48 47 48 47 47 47 47 46 45 45 44 44 43 42
37 37 39 39 40 40 40 41 42 42 43 44 45 45 46 46 46 45 45 46 46 47 48 48 49 48 48 50 51 50 48 49 49 49 49 48 48 47 46 46 46 45 44
37 38 38 39 40 39 40 40 41 41 42 43 44 45 45 46 46 46 46 46 47 48 48 48 49 49 49 50 50 49 48 49 50 50 51 49 49 48 48 48 47 47 46
37 38 38 39 39 39 39 39 40 40 41 42 43 44 44 45 46 46 47 46 47 48 48 48 49 49 49 49 50 50 48 48 49 49 50 51 50 50 50 49 48 48 48
37 37 37 37 39 39 38 38 38 39 40 41 43 44 44 44 45 46 47 46 47 48 49 48 49 49 50 51 51 51 49 49 49 49 49 50 51 51 51 51 49 49 48
37 37 37 37 37 38 37 37 37 38 39 41 42 43 43 45 46 46 46 46 47 48 48 48 49 50 51 52 52 51 51 51 50 49 49 50 51 51 51 51 51 50 50
37 37 37 37 37 37 37 36 37 38 40 41 41 42 43 45 46 46 46 47 47 47 48 48 49 51 52 53 53 53 52 52 51 50 50 50 52 52 51 51 52 52 51
36 36 37 37 37 37 37 37 37 38 39 40 41 42 43 44 46 46 47 47 48 48 48 48 48 50 52 53 54 54 53 52 52 51 50 50 50 50 51 52 52 53 53
34 36 37 37 37 37 37 38 37 38 38 39 41 42 43 43 44 45 46 47 48 49 49 49 49 50 52 53 54 54 53 53 53 53 52 51 52 52 52 52 53 53 53
33 34 35 36 36 37 37 37 37 38 38 39 40 40 41 42 43 44 44 46 47 47 48 50 49 49 50 51 52 53 52 52 52 53 52 50 51 52 53 53 53 53 54
34 35 35 35 36 37 37 38 38 38 38 38 38 39 39 40 41 42 43 44 45 45 47 47 49 48 48 48 49 50 50 50 51 52 52 51 51 52 53 53 53 53 54
32 33 34 34 35 36 36 36 37 38 38 38 37 37 37 38 39 39 40 40 42 43 44 44 46 46 47 47 48 48 47 48 49 51 52 52 53 53 53 53 52 52 53
31 32 33 34 34 35 35 35 36 36 36 36 37 36 36 36 36 37 38 39 40 41 43 43 43 44 44 45 47 47 47 47 47 49 51 51 52 52 52 52 52 52 53
31 31 32 33 33 33 33 33 34 34 35 35 35 36 36 35 35 35 36 37 38 40 41 42 42 43 44 43 44 45 46 46 46 46 47 48 49 50 50 51 51 52 52
31 31 31 31 31 31 31 32 32 32 33 34 34 34 35 35 35 36 37 37 38 39 40 41 41 41 42 42 43 43 44 45 44 45 46 47 48 49 49 50 50 50 51
31 31 31 30 30 30 30 30 31 31 31 32 32 32 33 34 35 36 36 36 36 37 38 39 40 40 40 42 43 43 44 44 44 45 47 48 48 49 49 49 48 48 49
30 30 30 30 29 29 30 29 28 28 29 30 30 30 31 33 34 35 35 34 35 36 36 37 38 38 38 39 41 41 42 44 44 44 46 48 49 49 48 48 48 48 48
29 29 29 29 28 27 28 27 26 25 25 25 26 28 29 29 30 32 32 33 33 34 35 36 37 37 38 38 39 40 40 42 42 43 44 45 47 48 48 47 46 47 48
29 29 28 28 27 26 25 24 24 24 24 24 23 25 27 28 28 29 30 31 32 33 34 36 36 37 38 38 38 39 41 40 41 41 42 43 44 45 46 47 47 47 48
Wind_Direction
263 263 263 263 261 261 261 260 258 257 258 257 256 254 253 252 251 251 249 249 248 248 246 245 244 243 242 241 241 240 241 244 245 244 243 245 245 245 244 244 244 245 244
263 263 263 262 261 261 261 259 259 258 258 257 257 255 254 252 251 251 250 249 248 247 246 245 244 243 241 240 240 240 241 242 244 244 244 245 245 245 246 246 245 245 245
264 262 262 262 261 261 261 260 260 258 257 256 256 255 253 251 250 250 250 250 248 247 246 245 243 241 240 240 240 240 240 242 244 245 245 245 245 245 245 246 246 247 247
264 262 261 261 261 261 261 260 259 258 257 256 256 255 253 252 251 250 249 249 248 246 246 245 242 240 240 238 238 239 240 242 243 244 245 246 246 247 246 245 246 247 247
264 262 261 261 261 262 261 259 258 257 257 256 256 255 254 253 251 250 249 248 247 247 246 244 242 241 240 239 239 237 239 241 243 244 245 246 246 247 247 246 246 246 247
265 263 262 261 262 262 261 260 258 257 256 256 255 255 254 252 251 250 248 248 247 246 245 244 242 241 240 239 239 239 240 242 243 245 245 246 247 247 247 247 246 246 247
266 263 262 262 262 261 260 260 259 257 256 254 254 253 253 252 251 250 248 248 247 246 244 244 242 241 240 239 239 240 240 242 243 245 246 246 246 247 247 247 247 247 247
266 264 262 262 262 261 259 259 258 257 255 254 253 253 253 252 250 250 249 247 247 246 245 244 243 242 241 241 240 241 242 243 244 245 245 245 245 246 247 248 248 248 247
266 265 264 261 260 261 259 258 258 257 256 254 253 252 251 251 251 250 249 248 247 245 244 244 244 243 242 241 242 243 244 245 245 246 245 245 245 245 247 247 248 248 248
266 266 264 262 262 261 260 259 258 257 257 255 253 252 251 251 250 249 248 248 247 245 244 244 244 244 242 241 242 243 244 245 246 246 246 245 245 245 247 247 248 248 248
267 267 265 263 261 261 261 260 259 258 257 255 254 252 251 251 250 249 248 248 248 246 244 245 244 244 243 242 243 243 244 245 246 247 247 246 246 246 246 247 247 248 248
270 270 268 266 263 261 261 260 259 259 257 255 254 254 252 252 251 250 249 248 248 247 246 246 246 245 244 244 244 244 244 244 246 247 248 248 247 246 247 247 248 248 249
271 271 268 266 264 262 262 262 261 260 259 257 257 255 253 252 251 251 249 248 248 247 246 247 247 246 245 244 244 243 244 244 246 248 250 249 248 248 248 248 248 248 249
271 270 267 265 262 262 263 263 263 262 261 259 257 255 254 253 252 251 249 248 248 247 247 247 247 247 245 244 244 243 244 245 247 248 249 250 250 249 249 249 248 248 249
272 269 267 264 262 264 266 266 265 264 262 260 258 257 256 255 253 251 250 249 249 248 248 248 248 247 246 245 244 244 245 246 247 248 248 250 249 249 249 249 249 249 250
273 269 267 266 264 265 267 267 266 264 262 261 260 259 257 255 254 252 251 250 250 248 248 248 248 248 247 246 245 246 247 247 247 247 249 251 250 249 249 250 249 250 251
273 269 269 268 266 267 268 268 267 266 264 263 261 260 258 255 254 253 252 251 251 249 248 249 248 248 248 247 246 246 247 247 247 248 250 250 249 248 250 250 250 250 251
275 271 270 269 269 269 270 270 269 268 265 262 261 259 257 255 255 253 252 251 250 249 249 249 249 248 247 246 245 246 247 247 248 248 249 249 250 250 250 251 251 251 251
278 274 271 271 270 271 272 271 271 268 265 263 261 260 257 256 254 252 251 250 249 248 247 248 249 248 246 245 245 246 247 248 248 248 249 249 250 250 250 250 250 251 251
280 277 273 273 274 275 274 274 272 269 265 262 261 259 257 256 254 252 251 250 250 249 247 247 248 248 246 245 247 247 248 249 249 250 250 250 250 249 250 250 250 250 252
284 281 278 275 275 276 276 275 274 270 265 262 261 258 257 256 254 253 252 252 251 250 247 246 247 247 247 246 247 249 249 250 250 250 250 249 249 249 250 250 251 251 252
284 284 282 278 277 277 276 275 274 271 267 264 261 258 257 257 254 253 254 254 253 251 248 246 246 246 247 247 247 249 250 250 250 250 250 249 249 250 251 252 252 252 253
286 285 284 279 277 278 278 277 276 271 267 264 263 259 258 256 254 253 254 254 254 251 249 246 246 246 248 248 247 249 250 253 252 252 251 250 249 250 251 252 252 253 253
287 287 286 284 281 278 277 278 276 273 268 265 262 259 258 257 254 253 254 254 253 253 251 247 246 246 247 247 247 249 251 253 253 252 252 250 249 250 250 252 253 253 252
287 288 286 286 285 281 277 276 275 273 270 267 263 259 258 258 256 254 254 253 253 254 252 249 246 246 246 247 249 250 252 253 254 253 252 250 249 249 249 250 251 252 253
287 287 286 285 285 283 280 277 274 271 270 269 266 261 260 258 257 254 252 252 253 254 253 251 249 248 249 250 250 252 253 253 254 254 253 252 251 250 250 251 252 253 253
Height
5683 5684 5685 5686 5688 5689 5691 5692 5694 5696 5697 5699 5700 5702 5704 5706 5708 5710 5713 5716 5719 5722 5725 5728 5731 5735 5739 5743 5747 5751 5756 5759 5763 5767 5770 5773 5776 5779 5782 5785 5788 5790 5793
5670 5672 5673 5674 5676 5677 5679 5680 5682 5683 5685 5687 5689 5691 5693 5695 5698 5699 5702 5705 5708 5711 5714 5718 5721 5725 5729 5733 5737 5742 5746 5749 5753 5757 5761 5764 5769 5771 5774 5777 5780 5782 5785
5657 5658 5660 5661 5663 5665 5666 5667 5669 5671 5673 5675 5677 5678 5680 5683 5686 5689 5691 5694 5697 5700 5704 5707 5710 5714 5718 5722 5727 5731 5736 5740 5744 5747 5751 5755 5759 5763 5766 5769 5771 5774 5777
5644 5645 5647 5649 5651 5652 5654 5655 5657 5659 5661 5662 5664 5666 5669 5672 5675 5678 5680 5683 5686 5689 5693 5696 5700 5704 5708 5712 5716 5721 5725 5729 5734 5738 5741 5745 5749 5753 5757 5760 5762 5765 5768
5631 5632 5634 5636 5638 5640 5641 5642 5644 5646 5648 5650 5652 5655 5657 5660 5663 5666 5669 5671 5674 5678 5681 5685 5689 5693 5697 5702 5706 5711 5715 5719 5723 5727 5731 5735 5739 5742 5746 5750 5753 5756 5758
5618 5620 5622 5624 5625 5627 5628 5629 5631 5633 5635 5638 5640 5642 5645 5648 5651 5654 5657 5660 5663 5667 5670 5674 5678 5682 5687 5691 5695 5700 5704 5708 5712 5716 5720 5724 5728 5731 5735 5739 5742 5745 5749
5607 5608 5610 5612 5613 5614 5615 5617 5619 5621 5623 5625 5628 5630 5633 5636 5639 5642 5645 5649 5652 5655 5659 5662 5667 5671 5675 5679 5684 5688 5693 5697 5701 5705 5709 5712 5716 5720 5724 5727 5730 5734 5738
5596 5597 5598 5599 5600 5601 5602 5604 5606 5608 5610 5612 5615 5618 5620 5623 5627 5630 5633 5637 5640 5644 5647 5651 5655 5659 5663 5667 5672 5677 5681 5685 5689 5693 5697 5701 5705 5708 5712 5716 5719 5723 5727
5587 5587 5587 5587 5588 5589 5590 5592 5593 5596 5597 5600 5602 5605 5608 5611 5614 5618 5621 5625 5628 5631 5635 5639 5643 5647 5651 5655 5660 5664 5668 5672 5676 5680 5684 5688 5692 5696 5700 5703 5707 5711 5714
5577 5577 5577 5577 5577 5578 5579 5580 5581 5583 5585 5587 5589 5592 5595 5598 5602 5605 5608 5612 5615 5619 5622 5626 5631 5635 5639 5643 5648 5652 5656 5659 5663 5667 5671 5676 5680 5683 5687 5691 5695 5698 5702
5567 5567 5566 5566 5566 5567 5567 5568 5569 5571 5572 5574 5577 5580 5582 5585 5588 5592 5595 5599 5602 5606 5610 5614 5618 5622 5626 5630 5634 5638 5642 5646 5650 5654 5658 5663 5667 5670 5675 5678 5682 5685 5689
5557 5556 5555 5555 5556 5556 5557 5558 5558 5559 5561 5562 5565 5567 5570 5572 5576 5579 5582 5586 5589 5593 5597 5600 5604 5609 5613 5617 5621 5625 5629 5633 5637 5641 5645 5649 5653 5658 5662 5666 5670 5673 5677
5547 5546 5545 5546 5546 5546 5547 5547 5548 5549 5549 5551 5553 5555 5557 5560 5563 5566 5569 5572 5576 5580 5583 5587 5591 5595 5600 5603 5607 5612 5616 5620 5625 5628 5632 5636 5639 5644 5648 5652 5656 5660 5664
5537 5536 5536 5536 5536 5536 5537 5538 5538 5538 5538 5539 5541 5543 5545 5547 5550 5553 5556 5559 5562 5566 5570 5574 5578 5582 5586 5590 5594 5598 5603 5607 5611 5615 5619 5622 5626 5631 5635 5638 5643 5647 5651
5528 5527 5526 5527 5527 5527 5527 5527 5527 5527 5527 5528 5529 5530 5532 5534 5537 5539 5543 5546 5549 5552 5556 5560 5564 5568 5572 5576 5580 5584 5589 5593 5598 5601 5605 5608 5612 5616 5620 5624 5629 5633 5637
5519 5518 5517 5517 5517 5518 5517 5517 5516 5516 5516 5517 5517 5518 5519 5521 5523 5526 5529 5532 5536 5539 5543 5546 5550 5554 5558 5562 5566 5570 5575 5579 5583 5587 5591 5594 5598 5602 5606 5610 5615 5619 5623
5509 5509 5508 5508 5508 5508 5507 5507 5506 5505 5505 5505 5505 5506 5507 5509 5511 5513 5516 5519 5522 5526 5529 5533 5537 5541 5545 5549 5553 5556 5560 5564 5569 5573 5576 5580 5583 5587 5592 5596 5600 5604 5609
5499 5499 5499 5499 5498 5498 5497 5497 5495 5495 5494 5494 5494 5494 5495 5497 5499 5501 5504 5507 5510 5513 5516 5520 5524 5528 5532 5535 5539 5543 5546 5550 5555 5559 5562 5565 5569 5573 5578 5582 5586 5590 5595
5490 5490 5489 5489 5488 5488 5487 5486 5485 5484 5484 5484 5484 5484 5485 5486 5488 5491 5493 5495 5498 5501 5504 5508 5511 5515 5520 5523 5527 5530 5533 5537 5541 5544 5547 5551 5555 5560 5564 5568 5573 5577 5581
5482 5481 5480 5480 5479 5478 5477 5476 5475 5474 5473 5474 5474 5474 5475 5477 5478 5481 5483 5485 5488 5490 5493 5497 5500 5504 5508 5512 5515 5517 5520 5525 5528 5531 5535 5538 5542 5546 5549 5553 5558 5563 5567
5474 5472 5471 5471 5469 5468 5467 5466 5465 5464 5463 5464 5464 5465 5466 5467 5469 5471 5473 5475 5477 5480 5483 5486 5489 5493 5497 5500 5504 5506 5508 5512 5515 5518 5522 5525 5529 5532 5536 5540 5545 5550 5553
5466 5464 5463 5462 5461 5459 5458 5457 5456 5455 5454 5455 5455 5456 5457 5458 5459 5461 5463 5465 5467 5470 5472 5476 5479 5482 5485 5489 5492 5495 5497 5500 5503 5506 5510 5513 5516 5519 5523 5527 5531 5535 5538
5458 5456 5455 5454 5452 5451 5449 5448 5447 5446 5446 5446 5446 5447 5447 5448 5450 5452 5454 5455 5457 5459 5462 5465 5469 5472 5475 5478 5481 5484 5486 5488 5490 5493 5497 5500 5503 5507 5510 5514 5517 5521 5524
5451 5449 5447 5446 5444 5443 5441 5440 5438 5438 5437 5437 5438 5438 5439 5440 5441 5442 5444 5446 5448 5450 5453 5456 5459 5462 5465 5468 5470 5472 5474 5475 5477 5480 5483 5486 5490 5493 5497 5501 5504 5507 5511
5443 5442 5440 5438 5437 5435 5434 5432 5431 5430 5430 5430 5430 5430 5431 5432 5432 5433 5435 5437 5439 5441 5444 5447 5449 5452 5456 5458 5460 5462 5463 5465 5466 5468 5470 5473 5476 5480 5484 5487 5491 5494 5497
5436 5434 5433 5431 5430 5428 5427 5425 5424 5424 5423 5423 5423 5423 5423 5424 5425 5426 5427 5428 5431 5432 5434 5437 5440 5442 5445 5448 5450 5451 5453 5454 5455 5456 5458 5461 5464 5467 5471 5475 5478 5481 5484